GFSWCAN_500_rhum_105.txt.gz
RH
27 34 94 100 100 100 100 100 99 100 100 100 87 42 94 100 100 100 100 100 100 100 100 100 100 100 100 100 100 100 100 100 100 92 64 47 23 15 10 8 7 6 6 12 19 22 32 38 34 38 48 67 82 69
23 66 97 100 100 100 100 80 88 92 74 52 37 53 100 100 100 100 100 100 100 100 100 100 100 100 100 100 100 99 65 58 61 43 34 15 11 11 10 8 6 7 16 67 31 42 35 42 53 52 65 92 100 96
28 86 99 100 99 100 100 99 85 58 42 33 51 100 100 100 100 100 100 100 100 100 100 100 100 100 100 100 90 77 70 40 28 18 13 12 12 10 9 7 7 7 21 32 30 39 46 56 65 92 96 98 97 99
39 83 100 96 88 98 88 60 47 37 36 57 100 100 100 100 100 100 100 100 100 100 100 100 100 100 100 88 59 57 35 26 16 14 14 14 13 11 11 9 8 12 27 42 43 55 51 61 82 96 100 100 98 99
68 100 100 100 96 74 66 40 35 43 80 100 99 90 96 100 100 100 100 100 100 100 100 100 99 79 94 50 41 39 19 15 15 15 16 16 14 11 10 9 9 9 25 49 50 69 60 62 85 95 99 92 100 100
100 100 100 100 75 38 34 36 49 90 100 99 98 100 100 100 100 100 100 100 100 100 99 89 93 85 78 61 35 22 15 15 16 17 18 16 14 12 11 11 11 11 17 47 52 60 79 86 100 99 100 100 100 98
94 100 91 64 44 45 44 54 91 100 100 100 100 100 100 100 100 100 100 100 100 95 94 86 94 50 49 34 24 17 16 17 18 19 20 19 17 14 12 11 11 13 21 49 57 54 82 88 100 100 100 100 100 85
98 90 76 71 58 61 64 96 100 100 100 100 99 100 100 100 100 100 100 100 98 99 96 88 69 66 41 24 19 18 18 21 21 20 17 15 14 12 11 12 12 14 18 64 70 57 88 90 99 97 100 87 92 75
100 82 74 68 53 75 94 100 99 98 86 100 100 100 100 100 100 100 95 97 100 100 96 83 60 38 36 21 19 20 22 22 19 16 14 13 14 14 14 16 15 16 20 57 70 69 88 100 100 98 100 89 94 76
100 100 95 79 58 93 100 100 93 99 100 100 100 100 100 100 100 99 95 100 100 100 100 84 51 36 33 22 22 24 21 15 14 15 16 19 20 26 21 21 23 23 25 43 75 68 80 99 100 77 70 72 79 65
99 99 79 62 55 99 100 95 100 100 100 100 100 100 100 100 98 98 97 96 93 98 94 87 74 29 23 24 23 17 14 15 20 68 45 64 62 61 43 36 39 35 30 55 85 62 65 76 97 98 91 79 50 47
91 65 61 52 59 100 100 96 100 100 100 100 100 100 100 100 100 99 99 100 100 100 96 84 29 25 27 20 15 16 18 25 49 65 56 77 91 60 62 52 56 51 37 62 100 75 49 41 38 39 60 67 31 26
58 64 64 58 70 100 100 100 100 100 100 100 100 100 100 98 96 97 95 97 95 96 57 24 26 25 17 14 15 20 33 62 60 68 99 59 62 80 87 78 60 47 55 79 100 83 48 25 19 20 23 27 31 27
52 47 47 63 85 100 100 100 98 100 99 98 100 100 100 90 88 90 95 100 95 35 26 29 18 14 14 14 18 30 72 68 76 96 99 84 81 84 98 98 93 100 98 82 84 81 64 31 19 22 21 27 28 27
42 42 66 67 100 100 100 100 100 100 100 95 96 92 90 85 100 100 96 74 31 31 26 15 14 14 14 18 28 49 68 71 95 92 61 71 80 88 90 91 87 81 64 60 74 76 58 37 29 26 20 19 24 35
34 38 65 99 100 100 100 100 100 100 100 98 90 89 100 100 94 61 31 31 33 20 14 14 14 15 18 29 40 52 69 81 66 43 50 60 64 73 96 100 100 100 96 97 95 69 68 48 41 28 22 39 43 37
73 100 71 88 100 100 100 100 100 100 100 100 100 100 100 59 32 33 36 30 17 14 14 14 15 18 27 36 50 54 67 56 46 42 40 62 90 100 100 100 100 100 100 100 100 100 100 75 45 45 55 42 39 60
97 100 79 46 48 69 90 97 100 100 100 100 100 96 59 35 38 38 25 17 15 14 15 16 19 26 34 42 79 55 55 56 48 47 57 75 100 100 100 99 89 80 79 81 81 74 72 67 56 47 48 67 77 76
75 100 100 87 57 43 38 38 44 57 70 66 47 39 40 44 42 27 19 16 14 15 16 17 26 44 57 80 84 61 70 65 70 77 79 86 100 97 98 88 70 64 65 66 65 68 59 53 61 80 87 84 83 80
42 88 100 100 84 75 69 63 55 53 50 50 53 52 49 40 28 20 18 15 15 16 16 22 37 58 68 93 96 88 79 77 84 91 90 86 88 81 75 68 60 54 58 59 64 58 58 70 79 76 71 68 66 62
57 80 100 100 90 76 68 68 66 63 63 59 54 42 32 24 20 19 17 16 16 17 17 24 45 58 68 88 88 82 75 80 89 92 85 74 67 66 63 56 53 60 62 60 61 56 59 63 66 63 59 55 53 52
54 83 96 92 83 77 65 59 48 42 37 33 31 28 23 19 19 19 18 18 17 17 18 26 44 56 63 72 78 79 72 63 69 83 89 86 72 59 51 51 72 71 64 63 62 57 53 53 53 59 59 53 52 55
81 85 81 73 68 63 63 62 57 48 41 32 27 26 22 19 19 21 21 20 19 18 18 24 37 66 77 77 77 71 63 64 79 80 80 82 81 70 62 62 71 68 67 69 66 59 58 59 61 61 57 57 59 60
81 78 73 66 62 63 56 56 58 49 42 34 27 26 26 26 25 22 22 22 22 20 18 23 30 51 83 78 68 63 62 74 81 76 74 67 62 64 58 58 63 66 65 69 70 69 67 64 63 62 62 63 66 68
77 76 75 72 66 69 67 60 54 50 39 40 38 33 29 28 26 24 23 22 21 20 20 25 33 42 85 78 62 62 66 85 88 94 92 73 56 51 50 51 54 59 62 66 66 66 64 63 63 64 65 68 72 76
74 76 71 73 77 73 77 74 69 62 54 39 31 30 31 34 35 34 29 32 35 36 40 47 45 42 77 77 62 55 71 96 98 100 99 71 53 50 48 47 49 52 57 60 60 59 59 60 61 65 69 72 78 78
76 76 70 69 71 72 71 66 56 46 36 31 30 34 43 56 60 58 63 57 51 49 49 50 52 47 61 77 63 52 50 79 100 100 100 84 56 46 46 47 48 52 54 55 55 55 56 59 63 67 72 77 82 81
77 75 68 60 59 49 37 33 29 29 33 39 44 69 78 77 74 80 77 98 78 44 43 49 56 52 50 55 52 49 46 46 91 100 100 96 65 46 47 52 52 54 56 57 57 59 60 63 67 70 70 69 65 60
49 54 54 42 38 30 27 29 35 44 50 60 76 84 76 79 81 85 81 97 100 99 71 74 74 67 54 46 46 48 42 40 64 85 97 95 68 49 48 54 64 72 73 70 68 65 62 60 54 48 41 36 35 39
24 24 25 25 28 31 42 51 59 60 74 82 82 88 89 84 84 91 96 96 100 98 90 88 80 78 63 54 50 46 40 37 52 79 95 92 61 46 44 46 46 48 48 47 46 43 39 37 36 35 34 34 42 54
31 32 32 34 45 61 68 68 74 81 89 87 89 89 83 76 73 76 88 99 100 99 97 100 99 95 88 79 70 61 59 60 74 77 75 75 57 46 45 44 42 40 38 36 34 33 32 31 29 29 32 39 50 69
82 80 77 75 76 74 76 77 82 84 85 78 76 71 76 80 82 86 93 94 92 94 96 100 100 100 100 95 94 91 85 85 80 71 66 62 56 55 52 48 44 42 40 36 34 32 31 31 31 33 42 58 75 95
66 71 80 87 90 89 85 79 77 78 78 73 69 68 68 71 73 82 93 100 100 97 86 81 86 90 96 97 96 94 94 95 94 92 87 78 71 65 60 55 52 49 44 42 39 37 38 38 41 52 72 89 100 100

GFSWCAN_500_rhum_108.txt.gz
RH
43 36 31 30 94 100 69 35 48 94 100 99 100 100 94 45 54 100 100 100 100 100 97 100 100 100 100 100 100 100 100 100 100 100 100 100 100 100 100 91 38 12 7 6 6 6 10 16 27 22 24 41 59 58
38 30 47 100 100 100 100 97 96 100 97 91 91 66 40 70 100 100 100 100 100 99 100 100 100 100 100 100 96 99 99 100 100 100 100 100 98 74 55 16 9 7 6 32 10 38 34 28 30 36 36 57 90 92
28 51 100 100 100 100 100 85 83 79 74 73 94 82 51 91 100 100 100 100 100 100 100 100 100 100 100 100 100 100 100 100 100 99 96 79 72 22 11 10 8 6 6 11 21 26 22 28 39 50 44 88 88 81
38 98 100 100 100 100 100 99 92 99 99 76 47 47 92 100 100 99 99 100 100 100 100 100 100 100 100 100 100 99 75 73 85 78 59 26 16 18 21 24 7 6 7 14 23 31 32 34 50 66 82 79 80 84
97 100 100 100 100 100 94 82 97 77 61 40 46 63 100 100 99 100 100 100 100 100 100 100 100 100 100 100 98 98 94 75 72 43 15 14 13 13 17 11 8 7 8 15 40 38 40 42 51 79 94 100 99 97
100 100 100 100 98 90 73 53 47 37 36 62 91 100 100 100 100 100 100 100 100 98 100 100 100 100 100 96 63 79 62 54 28 14 14 16 16 14 12 10 9 7 8 10 38 45 48 60 58 91 92 100 100 100
100 100 100 100 79 54 51 35 37 46 61 91 99 97 100 100 100 100 100 100 100 98 100 100 99 98 98 66 80 77 36 23 18 15 16 17 17 14 12 11 10 9 8 9 12 41 48 75 81 100 100 100 100 94
100 100 100 95 56 32 28 35 65 88 86 93 100 100 100 100 99 98 100 100 100 100 100 96 100 94 91 83 63 54 38 25 18 17 18 19 19 17 15 14 11 10 9 10 14 28 48 63 79 95 100 99 100 90
100 80 63 47 37 30 36 87 100 100 100 100 100 100 99 100 100 100 100 100 100 100 100 99 91 70 90 54 42 32 19 18 20 21 20 18 16 14 13 13 11 11 10 10 14 38 58 56 80 90 100 100 100 93
82 71 57 43 45 54 99 100 100 98 100 100 100 97 100 100 100 100 100 100 99 100 100 99 98 88 76 46 22 19 21 22 22 18 14 13 13 13 12 15 13 14 14 14 17 41 68 75 87 93 100 100 99 91
82 70 72 63 90 100 100 91 90 100 100 100 98 100 100 100 100 100 97 98 100 100 91 87 77 46 50 28 22 23 22 16 14 37 39 43 36 36 35 36 37 32 23 23 24 44 71 81 100 100 100 98 90 84
91 80 66 64 100 100 99 100 100 100 99 100 100 100 100 100 100 97 97 100 96 100 98 93 83 73 29 24 24 19 14 14 26 66 64 42 88 85 63 44 43 52 49 44 44 82 75 75 99 100 99 73 55 52
68 59 56 88 100 100 100 100 99 97 99 100 100 100 100 96 94 97 94 94 98 100 100 100 73 25 26 22 15 14 15 38 36 46 86 62 52 54 69 62 61 62 72 47 94 100 80 66 88 96 91 99 89 49
65 63 62 98 100 100 100 99 98 100 100 98 100 97 95 95 93 95 92 100 100 98 95 49 24 26 19 14 14 16 24 32 52 82 100 61 74 64 74 80 83 71 52 54 100 100 95 60 38 54 28 29 39 31
45 48 66 93 100 99 100 100 100 100 100 100 100 100 100 100 100 100 99 91 95 95 40 27 26 16 14 14 16 19 36 51 79 99 56 58 79 94 100 96 81 70 74 99 100 100 84 38 26 22 23 25 30 32
37 66 68 97 100 100 98 100 100 100 100 100 100 99 100 100 100 98 96 98 84 31 29 22 15 14 14 14 18 30 51 80 86 39 45 63 65 76 84 95 100 100 94 84 78 84 84 68 39 28 25 26 27 27
36 48 84 99 100 100 100 100 100 100 100 99 100 99 100 99 100 100 99 56 31 30 19 14 14 14 16 17 26 44 68 96 52 47 46 71 98 100 100 100 100 100 93 75 74 81 68 56 44 34 27 23 21 21
51 82 100 100 100 100 100 100 100 96 98 100 100 100 100 95 62 38 30 34 28 15 14 15 16 15 17 26 41 51 72 62 54 46 60 66 100 100 100 100 100 100 100 100 100 100 100 80 58 40 35 24 25 41
98 72 92 100 100 100 100 100 100 100 100 100 100 100 89 43 34 36 36 25 16 14 15 16 15 18 24 33 70 57 58 59 63 59 71 78 93 100 100 100 100 98 96 96 97 96 95 99 91 59 40 41 46 59
100 91 59 55 84 99 100 100 100 100 100 100 99 92 52 38 40 39 27 18 15 15 16 16 18 27 32 61 78 67 84 88 83 83 85 88 93 100 100 100 93 78 76 80 78 79 84 79 70 63 67 83 87 80
72 100 100 74 48 41 40 45 56 68 66 55 48 42 43 46 43 31 21 18 16 15 17 17 19 31 46 71 94 89 93 85 86 87 90 88 87 86 90 90 80 67 67 68 68 72 70 69 83 90 89 85 77 68
59 94 100 100 88 76 70 65 67 62 59 60 58 56 49 39 29 23 20 18 16 16 17 18 20 35 52 69 99 98 88 84 71 77 94 96 87 76 69 63 61 60 70 68 64 63 63 64 67 69 66 65 71 66
45 44 96 100 92 72 62 58 55 52 49 46 43 40 31 26 21 21 19 19 18 18 18 17 20 32 52 57 78 86 86 77 62 72 84 87 90 87 81 69 60 59 70 70 68 71 68 66 61 56 58 62 61 60
49 55 86 95 82 69 64 59 57 51 46 40 33 29 28 25 22 20 20 21 20 20 20 19 18 26 42 59 71 79 76 67 57 68 78 75 74 67 64 67 62 59 64 70 70 70 70 70 64 64 64 64 64 65
73 78 84 70 64 62 55 53 54 54 54 49 44 35 29 29 28 29 25 24 23 22 23 23 20 18 27 42 76 83 68 63 58 63 78 87 86 74 57 53 53 52 52 58 65 66 65 66 66 66 66 64 63 64
93 88 77 67 64 55 52 50 49 50 53 49 40 37 34 36 36 32 28 26 26 24 22 20 18 17 21 30 42 86 78 62 58 74 77 89 99 90 62 51 49 48 48 50 56 61 62 62 61 60 58 58 59 61
84 78 71 61 63 61 54 57 65 66 64 63 59 49 40 34 32 35 33 31 29 27 28 30 32 32 39 44 41 70 86 66 57 68 96 93 96 100 89 64 47 46 47 49 53 59 61 61 61 62 64 63 61 58
76 70 65 61 54 54 64 67 68 67 65 54 47 39 32 35 53 43 48 55 59 53 47 44 45 48 51 57 56 61 84 74 55 51 56 90 100 100 100 76 50 50 58 65 66 69 76 77 76 72 64 57 49 41
58 56 58 60 60 59 59 56 48 41 36 34 33 34 39 46 52 61 69 79 84 80 80 63 57 67 82 78 71 66 72 74 62 53 47 51 79 95 100 94 65 51 51 54 63 72 73 66 58 50 43 38 34 31
56 59 62 62 60 51 42 38 33 30 32 35 41 46 62 72 73 78 82 86 92 99 100 100 100 100 100 100 100 96 73 62 53 50 48 38 43 62 90 97 76 52 52 51 49 47 46 44 39 35 32 30 31 32
24 24 25 26 26 27 27 29 31 38 47 53 58 71 83 84 86 81 77 83 93 96 97 97 98 100 100 100 100 100 90 75 62 54 49 43 42 66 77 88 87 66 54 49 47 44 41 40 39 40 39 38 36 36
46 39 32 32 34 32 34 38 48 57 63 66 78 82 87 89 92 97 97 92 92 92 92 94 97 98 100 100 100 100 100 91 72 62 56 55 63 71 71 72 73 71 64 55 53 52 50 50 49 48 47 46 47 51
65 67 70 69 69 68 71 71 73 74 74 74 80 88 86 86 86 95 100 97 92 90 90 90 93 89 85 91 96 98 100 100 100 98 93 90 92 89 84 81 77 73 73 69 63 60 59 56 56 55 57 60 63 75

GFSWCAN_500_rhum_114.txt.gz
RH
100 100 90 98 98 45 35 34 34 32 29 25 22 20 21 45 36 94 100 98 81 72 75 79 78 84 57 78 42 36 90 78 86 76 93 100 99 100 100 100 100 100 100 100 100 94 84 88 48 17 15 15 17 14
98 88 68 51 38 37 36 59 99 79 30 19 18 25 96 48 83 100 100 92 78 90 58 51 51 49 82 88 67 77 100 99 100 100 98 100 100 100 98 100 100 99 91 100 100 98 57 11 9 11 14 18 17 34
59 46 42 40 36 34 36 93 87 83 63 29 33 100 100 100 100 100 94 78 67 46 75 100 99 86 78 78 69 91 95 100 100 99 98 98 100 99 96 99 100 97 100 96 86 42 10 12 19 22 19 22 39 71
46 40 48 78 97 100 99 99 100 62 45 48 100 100 100 99 90 56 62 66 52 81 80 100 95 100 93 96 100 100 99 96 94 94 92 100 100 100 100 100 100 98 95 55 16 10 22 25 20 22 22 31 59 77
92 100 100 100 100 100 59 34 65 97 98 98 99 100 100 100 92 50 56 78 100 75 85 98 100 100 100 95 95 98 99 98 97 97 99 100 100 100 100 97 96 68 31 12 9 9 25 21 25 25 26 40 66 86
100 100 100 100 100 100 100 100 100 100 100 100 100 100 94 49 54 99 100 100 82 80 86 89 96 100 100 100 100 98 99 98 100 100 100 100 100 100 100 85 60 38 18 9 7 9 13 22 28 26 28 38 76 92
100 100 100 100 100 100 100 98 97 94 92 88 66 50 49 67 94 79 76 77 87 79 78 84 88 94 100 100 96 93 100 100 99 100 100 100 96 80 47 39 50 36 13 8 7 8 14 24 34 34 33 53 88 92
100 100 100 100 100 100 100 100 99 100 100 100 81 48 72 90 100 99 99 96 91 90 84 87 96 100 95 98 100 100 100 90 92 100 81 73 46 22 17 17 15 12 11 10 9 8 8 12 39 49 46 81 93 97
100 100 100 100 100 97 91 89 87 89 75 64 55 61 84 100 100 97 100 100 99 96 100 100 99 95 100 100 100 100 98 99 96 79 28 24 18 18 18 17 15 13 12 12 10 9 8 9 12 45 56 79 90 100
100 100 100 93 74 56 60 74 58 51 47 75 78 90 100 100 100 100 100 100 100 100 100 100 100 100 99 94 100 100 89 66 71 76 59 42 23 21 18 18 18 18 16 15 14 12 10 10 11 23 51 69 86 90
84 54 46 43 38 34 36 48 66 68 100 100 81 70 97 100 100 100 100 99 100 100 100 100 99 100 98 99 96 95 99 94 86 54 44 24 21 20 18 16 14 13 13 13 14 14 12 11 10 13 48 69 89 92
72 56 44 32 29 29 62 89 93 100 100 94 100 100 100 100 98 99 99 97 98 99 100 100 97 95 96 99 96 84 59 42 23 22 18 15 15 14 15 18 19 19 20 21 25 22 17 15 16 28 40 79 93 93
59 41 33 44 60 80 100 97 96 100 100 99 100 100 100 97 95 95 90 97 100 100 100 100 100 100 95 95 69 32 23 22 16 14 14 14 34 36 27 22 22 20 19 22 35 63 54 35 24 58 84 100 100 100
40 35 41 64 100 100 98 86 91 99 100 100 100 98 92 86 89 100 100 100 100 100 98 100 99 92 87 47 25 24 17 14 13 14 36 52 38 46 45 30 32 39 46 54 66 70 66 57 88 99 100 100 100 100
65 85 87 89 99 100 99 100 100 100 100 100 100 100 88 96 100 95 100 100 100 97 96 99 97 94 44 25 22 15 14 12 17 49 76 43 38 54 62 44 42 57 65 68 81 86 76 100 100 100 100 100 100 100
100 100 96 88 94 100 100 100 100 100 100 100 100 100 100 100 96 98 97 100 100 100 100 98 83 29 25 18 14 14 14 18 40 53 36 36 63 67 70 75 54 48 64 77 85 100 100 100 100 100 100 100 100 100
100 100 94 98 100 100 100 100 100 100 100 100 100 100 100 100 100 100 100 96 92 92 98 54 27 23 16 15 15 14 17 36 75 42 46 38 78 80 83 91 86 91 73 62 86 100 100 100 100 100 100 100 100 100
100 100 100 100 100 100 100 100 100 100 100 100 100 100 99 94 92 92 90 92 99 95 33 27 19 15 16 16 15 18 28 46 73 56 51 37 78 83 86 90 100 90 86 79 99 100 100 100 100 100 100 100 96 74
100 100 100 100 100 100 100 100 100 100 100 100 100 100 96 94 93 96 99 100 84 35 29 17 15 17 16 15 30 35 41 56 69 54 43 43 74 86 91 93 89 95 100 85 75 75 82 95 100 100 100 90 74 56
100 100 100 100 100 100 99 98 98 100 100 100 99 99 97 100 100 100 95 58 32 27 16 15 17 18 15 21 37 48 39 57 58 54 59 70 82 92 100 100 100 100 100 100 98 98 95 89 93 90 88 80 68 58
100 100 100 100 99 97 97 100 100 100 100 100 99 96 97 91 65 44 34 34 30 17 15 16 19 17 17 20 26 47 42 47 58 70 73 84 88 85 93 100 100 100 100 100 100 100 96 94 96 96 93 95 88 73
100 100 100 100 100 99 100 97 99 100 98 99 98 100 80 55 42 39 38 32 20 16 15 16 19 20 18 21 28 48 45 48 74 77 69 79 94 98 98 95 97 95 99 100 100 100 100 100 100 100 100 93 88 86
100 96 90 95 100 98 100 100 100 100 99 98 98 96 80 50 42 41 39 32 22 18 16 16 18 20 19 20 27 46 58 53 76 84 76 75 84 92 89 80 80 88 83 88 95 99 100 100 100 100 100 100 100 100
51 95 99 72 68 68 75 86 90 97 90 79 70 55 49 47 45 43 36 30 23 20 18 17 18 20 21 20 22 35 52 67 84 85 80 77 78 85 94 87 69 62 61 62 66 70 90 99 100 100 100 100 100 100
37 51 94 99 84 74 67 65 64 61 61 58 56 55 51 47 39 32 28 24 22 20 20 20 20 20 21 22 22 20 28 46 59 70 76 82 71 83 88 95 100 86 70 58 54 54 56 59 69 83 87 89 89 88
35 38 72 99 92 75 64 59 56 53 50 47 45 42 38 35 34 32 30 30 29 28 28 29 28 28 27 26 27 26 22 22 34 52 61 79 82 69 74 89 94 97 97 93 91 62 48 49 51 53 58 67 73 78
35 32 52 82 78 68 63 58 56 51 49 47 47 46 46 45 44 39 36 36 38 40 40 38 35 33 32 30 26 22 20 19 20 26 43 79 92 82 68 62 66 88 94 93 94 99 68 52 56 65 76 86 93 99
68 57 57 61 61 59 52 47 44 41 39 37 35 32 35 43 48 45 46 46 45 42 39 37 33 29 26 25 26 28 33 36 33 36 41 48 86 99 81 67 62 69 88 94 90 89 97 85 58 60 66 69 70 68
74 73 72 71 67 60 52 47 45 44 43 42 40 42 50 55 54 52 49 49 51 47 41 38 39 42 44 45 44 42 43 49 52 57 61 63 72 93 97 74 57 52 50 46 55 60 79 99 100 89 78 74 72 68
44 49 53 56 56 53 51 48 48 46 44 45 46 50 54 54 54 48 43 43 49 53 54 59 66 69 71 73 76 74 78 92 97 93 94 95 98 98 100 100 91 67 56 47 41 56 72 81 92 98 99 97 89 81
52 45 47 43 40 36 29 34 37 42 48 53 54 52 46 41 40 42 44 54 64 68 72 80 83 80 77 79 85 86 92 95 93 98 100 100 100 100 100 100 100 97 72 61 59 62 69 79 86 91 92 89 85 81
28 29 29 36 47 49 47 53 60 61 57 50 44 38 34 34 41 50 61 78 89 88 82 76 72 71 76 79 81 87 92 94 97 98 100 100 100 100 100 100 100 100 98 97 98 97 98 97 95 92 86 84 83 80
70 56 39 36 32 30 28 26 26 26 27 28 29 32 36 41 52 60 62 81 91 94 90 86 83 79 82 82 85 88 85 85 90 92 92 95 94 95 98 99 100 100 100 100 100 97 92 88 86 88 90 92 92 90

GFSWCAN_500_rhum_117.txt.gz
RH
78 76 83 97 100 100 100 58 48 44 47 52 55 56 51 46 43 39 36 36 49 92 100 100 97 95 100 94 71 85 82 65 97 100 99 77 59 49 56 85 100 97 100 99 100 92 85 96 100 100 100 91 53 30
91 100 100 93 100 100 100 68 52 54 38 40 41 39 37 33 29 26 27 24 64 100 100 94 97 94 96 93 63 80 51 49 79 100 100 83 99 100 99 100 99 98 94 100 100 95 98 100 100 99 69 33 14 15
94 97 90 92 98 74 74 97 95 97 54 30 28 26 23 21 32 54 59 47 97 100 100 97 81 83 94 75 79 81 49 75 98 100 100 93 95 93 96 95 100 99 100 100 100 95 98 100 77 13 9 13 16 15
75 56 49 44 42 41 39 71 100 98 86 38 25 28 47 70 65 75 100 100 100 100 98 73 69 81 54 79 100 93 75 78 100 99 93 94 100 100 92 92 99 100 100 100 98 100 99 74 13 15 25 18 17 32
50 51 59 64 54 40 37 87 96 76 42 42 92 100 100 58 100 100 100 100 100 86 80 94 93 96 92 98 100 85 68 87 94 88 86 84 80 94 91 96 99 100 100 99 99 76 39 17 22 24 20 20 26 48
100 100 100 100 100 85 88 57 76 35 99 100 100 100 100 100 100 100 100 94 66 81 100 100 100 100 98 90 100 80 98 100 100 93 81 89 100 100 100 100 100 100 97 93 50 14 12 25 28 22 22 24 30 51
100 100 100 100 93 77 53 50 58 100 100 100 99 99 100 100 100 60 61 65 60 100 94 98 100 99 99 98 99 100 99 92 90 87 91 100 100 97 99 100 100 89 76 48 20 12 14 18 23 26 26 26 27 46
100 100 100 100 100 96 86 92 100 92 84 93 100 100 100 98 94 98 88 98 84 75 78 90 92 95 97 100 100 95 97 90 94 100 100 100 100 100 100 99 84 72 62 27 14 11 11 17 22 31 34 32 39 71
100 100 100 100 100 100 100 99 100 100 100 100 100 100 63 90 100 100 99 76 57 61 59 68 74 77 77 84 98 90 93 100 99 100 98 96 95 72 49 24 20 20 16 14 12 11 10 9 10 22 38 39 52 85
100 100 100 100 100 100 100 100 100 99 96 87 64 74 100 100 100 100 100 94 80 90 86 92 95 94 97 89 92 100 100 100 100 100 84 70 53 25 21 20 18 18 17 16 14 13 12 11 10 11 22 42 50 86
100 100 100 100 100 100 99 100 100 91 69 53 78 100 100 100 100 100 100 100 100 100 100 100 100 100 99 100 100 100 93 77 78 67 55 54 60 57 49 31 21 19 19 18 18 17 16 15 14 11 10 22 52 72
96 80 56 40 48 74 80 76 65 62 47 70 100 100 100 100 100 100 99 99 100 98 94 94 93 85 91 100 100 100 98 92 94 82 72 56 47 27 20 17 16 16 15 15 15 15 16 16 16 14 14 14 34 61
42 34 34 34 35 40 47 52 74 84 80 100 100 100 100 97 93 92 91 98 96 97 100 100 100 100 96 98 97 85 88 54 40 26 21 16 15 14 16 23 21 18 17 17 15 14 16 21 26 19 18 22 35 70
37 29 29 35 60 91 100 100 100 97 100 100 100 97 96 86 87 100 100 100 100 100 100 100 99 100 100 100 90 52 27 24 19 14 13 13 24 32 31 32 24 23 23 22 21 21 26 40 66 44 28 39 71 100
37 38 41 80 96 100 100 100 100 100 100 98 100 100 96 98 100 100 100 92 94 100 100 100 98 89 88 69 35 24 21 16 13 13 18 39 33 34 48 49 37 30 35 41 50 63 79 85 78 65 96 100 100 100
38 64 89 83 96 100 100 100 99 100 100 100 98 100 100 100 100 100 99 100 100 99 98 97 98 99 84 31 24 18 14 14 14 17 36 29 34 53 49 61 70 58 42 52 70 79 87 95 92 100 100 100 100 100
85 100 100 94 97 100 100 100 99 98 98 100 100 100 100 100 100 100 100 100 99 100 100 100 100 54 26 22 15 15 15 14 17 42 39 32 30 59 66 82 98 98 97 55 64 100 100 100 100 100 100 100 100 100
100 100 100 100 100 100 100 100 100 100 100 100 100 100 97 100 99 100 100 100 100 100 100 90 34 25 18 15 16 15 14 18 43 56 43 41 32 67 75 87 99 100 100 57 82 100 100 100 100 100 100 100 100 100
100 100 100 100 100 100 100 100 100 100 100 100 100 100 100 100 100 100 100 98 92 93 69 31 22 16 16 18 14 17 23 30 59 68 53 40 34 71 81 90 95 100 94 65 82 96 100 100 100 100 100 100 100 100
96 99 100 100 100 100 100 100 100 100 93 92 94 95 95 98 100 100 98 97 96 49 30 20 16 17 19 14 13 28 34 45 67 54 42 40 54 77 94 90 95 98 100 100 100 99 98 97 99 100 100 100 100 100
98 96 99 99 98 98 100 100 100 100 94 94 93 98 100 100 97 100 100 98 48 31 20 15 17 21 19 14 15 28 41 44 52 50 49 47 59 73 87 100 100 100 100 100 100 100 100 100 100 100 100 98 100 100
100 98 97 96 100 99 97 94 97 99 98 96 96 96 98 97 92 86 57 42 33 25 16 15 18 23 22 16 16 29 44 42 46 58 60 60 61 77 84 91 97 99 98 99 100 100 100 100 100 100 98 99 100 100
100 100 100 100 99 94 96 90 95 96 95 97 100 99 96 77 57 50 39 36 30 21 16 16 16 21 23 20 18 23 40 44 45 50 65 67 62 80 90 91 84 82 94 94 93 97 100 100 100 100 100 100 100 100
91 99 99 100 100 100 95 97 96 99 100 100 100 100 93 73 53 45 41 39 34 26 20 18 16 16 19 22 22 20 26 38 50 55 72 77 74 73 81 90 89 73 67 72 76 75 80 76 94 100 100 100 100 100
45 83 98 85 82 94 100 100 100 98 98 97 97 91 72 61 49 45 43 38 34 29 23 20 18 18 19 20 21 22 22 22 30 46 64 80 79 80 77 80 86 95 100 100 98 87 69 59 57 58 61 75 90 97
37 44 70 95 84 74 66 66 68 71 68 62 58 57 54 50 49 44 38 32 29 25 24 22 22 22 23 25 27 26 25 26 24 24 29 48 62 71 84 81 76 85 94 93 92 91 91 94 79 56 56 60 62 65
28 33 42 86 100 82 70 63 61 58 54 51 47 46 44 41 39 38 37 36 36 36 36 38 40 42 41 40 36 34 32 28 24 21 21 24 34 55 88 99 92 76 69 74 81 94 97 92 90 94 79 60 61 67
24 28 33 53 91 88 78 68 62 60 58 56 52 48 43 41 41 38 38 40 38 39 42 44 44 42 40 39 35 30 26 23 22 24 28 28 28 33 50 90 100 93 80 71 73 87 91 85 81 88 97 97 86 77
51 52 52 55 64 73 69 60 52 49 47 44 40 37 38 38 37 37 39 43 47 50 51 50 47 43 39 32 31 30 32 33 37 41 45 50 51 56 59 62 84 100 100 80 73 68 54 50 58 80 93 98 99 98
75 75 78 77 77 76 71 64 57 50 46 41 39 40 41 41 43 45 50 55 56 53 49 49 46 41 39 46 54 55 56 58 61 68 76 81 89 86 88 93 95 100 100 100 100 87 74 67 69 75 86 95 100 100
46 44 46 45 47 52 53 53 49 46 44 42 40 38 36 35 39 47 52 52 51 46 42 44 47 50 58 70 68 63 66 72 78 89 93 91 97 100 100 100 100 100 100 100 100 100 100 100 99 97 96 99 100 98
49 50 50 52 49 40 34 31 32 33 33 33 37 40 46 50 54 49 43 40 40 40 42 52 59 64 73 73 70 71 74 76 78 84 87 90 91 92 93 100 100 100 100 100 100 100 100 100 100 99 96 93 88 89
38 32 30 30 28 27 28 36 40 39 41 50 57 58 55 48 40 42 40 40 42 44 58 74 82 84 78 74 75 77 73 72 74 77 78 83 89 90 92 93 93 92 93 96 97 98 100 100 100 100 98 97 100 100

GFSWCAN_500_rhum_123.txt.gz
RH
83 100 100 100 100 100 100 100 100 100 100 100 100 79 86 74 44 49 80 97 100 100 100 46 44 38 31 26 23 21 21 22 43 47 36 28 27 45 52 47 50 100 100 83 100 100 87 64 55 42 36 32 58 80
90 100 98 100 100 88 91 100 100 100 99 97 95 77 61 56 76 82 83 100 98 94 58 58 42 40 48 67 47 55 82 89 96 90 76 72 61 43 37 80 100 95 100 100 99 78 63 46 42 42 46 75 94 100
73 96 91 90 83 78 75 74 67 70 71 64 64 56 54 66 74 74 100 100 92 68 70 63 52 80 43 58 96 100 100 99 100 100 92 80 76 66 78 85 89 98 78 87 97 77 53 55 56 46 62 92 97 96
48 54 62 56 52 50 41 38 41 73 42 42 40 39 73 64 93 91 100 99 90 80 71 69 81 63 83 93 100 100 100 100 100 96 100 99 86 100 97 100 100 99 86 89 83 77 73 60 56 66 89 97 99 96
74 87 84 82 81 74 75 85 81 86 81 86 73 52 51 68 98 100 100 89 68 59 55 67 97 100 100 100 98 100 99 94 94 100 85 79 77 97 100 98 95 99 92 90 76 85 81 92 91 97 96 95 100 82
86 71 61 69 79 89 90 100 100 100 100 88 57 66 75 94 99 89 68 51 47 59 94 100 100 99 94 88 70 75 100 91 96 99 95 100 100 100 100 90 92 86 79 74 91 100 100 100 100 100 100 100 94 42
100 100 100 83 39 51 95 100 100 100 100 80 47 56 58 57 48 49 70 53 69 100 98 100 100 100 90 64 54 68 96 97 100 100 100 100 100 95 76 68 64 56 56 85 100 100 100 100 100 97 88 54 27 35
100 100 100 100 71 47 76 97 100 100 89 79 66 35 47 95 94 100 99 100 84 98 100 100 100 100 100 91 92 81 94 100 100 100 100 100 90 76 60 60 59 78 98 100 99 98 100 100 76 30 32 42 38 32
100 74 75 100 70 68 94 92 52 74 100 100 100 100 100 100 100 100 100 100 100 100 100 100 100 100 100 96 96 91 97 92 100 100 99 81 70 61 74 88 100 96 95 89 100 100 87 61 25 19 37 52 40 35
57 42 27 23 41 66 78 86 99 100 100 100 100 100 100 100 100 100 100 100 100 100 100 100 100 100 100 100 100 100 100 100 100 92 81 82 92 97 100 100 100 100 100 100 100 88 38 20 18 21 26 32 38 38
60 60 58 60 70 76 77 82 79 84 93 97 97 100 100 100 100 100 100 97 100 100 97 87 81 86 94 96 95 90 87 84 87 87 94 100 100 100 100 100 93 36 22 20 20 20 19 18 16 15 15 19 31 41
94 91 92 73 70 86 92 88 98 100 96 100 100 97 83 90 94 94 90 100 99 95 81 65 59 58 68 68 74 93 96 98 100 100 100 99 84 91 83 52 32 41 48 45 40 31 23 20 20 19 18 17 16 19
93 96 98 100 100 99 99 100 96 100 100 100 100 100 100 99 87 81 82 95 92 86 75 63 64 75 86 98 100 100 100 100 89 90 93 88 81 88 90 87 59 33 21 17 17 15 14 14 14 15 16 17 18 18
98 87 81 78 84 96 100 100 99 100 100 100 96 100 100 100 100 100 100 100 100 80 72 85 99 100 100 100 100 100 100 98 97 97 87 62 30 18 15 17 26 29 31 26 20 18 20 22 21 20 19 18 18 24
61 95 100 100 100 100 100 100 84 91 100 100 100 100 100 99 100 100 100 98 87 93 100 100 98 98 97 100 100 96 92 69 31 23 17 14 13 18 28 30 35 35 45 46 32 29 26 23 20 16 15 17 24 33
38 45 61 68 76 92 90 76 86 100 100 100 100 100 100 100 100 98 93 94 99 100 99 97 100 100 100 100 100 74 27 22 16 14 14 16 26 26 29 38 38 51 58 69 44 33 32 31 36 52 57 64 100 99
56 93 97 86 70 66 71 84 99 100 100 100 100 99 100 100 99 100 100 100 100 100 100 100 100 100 94 96 52 27 22 15 15 14 15 27 27 24 24 42 44 51 65 74 36 45 64 51 55 66 99 85 83 92
84 89 93 90 84 97 97 99 99 100 100 100 100 100 100 100 100 100 100 100 100 100 99 100 94 94 96 52 26 18 16 16 14 14 29 34 33 30 24 31 50 59 70 69 37 74 73 80 76 83 93 97 93 100
99 95 92 93 94 96 95 92 98 98 99 98 99 93 94 100 100 100 100 99 99 100 100 100 99 93 36 21 16 18 16 14 16 22 38 38 35 35 25 26 58 67 70 73 49 59 66 84 84 92 94 98 100 75
98 96 98 97 95 98 97 94 88 90 92 91 90 90 92 100 100 100 100 100 100 100 100 100 80 31 18 17 19 16 13 16 21 26 44 48 43 35 22 30 60 70 74 79 80 93 99 98 100 100 100 100 100 100
100 99 95 88 87 92 93 97 100 96 93 88 90 95 100 100 98 97 100 100 100 97 98 81 33 18 17 21 18 13 13 19 24 34 56 49 37 29 26 26 35 48 76 87 88 87 98 100 100 99 100 100 100 100
100 100 100 99 90 83 86 86 88 90 93 96 98 96 99 99 100 100 100 100 96 97 88 43 22 16 21 23 18 13 12 17 28 34 52 51 42 36 35 37 48 66 78 88 94 96 98 100 100 100 100 99 98 99
100 100 100 100 99 95 92 86 84 82 86 94 94 93 99 100 100 96 99 100 99 97 64 33 18 16 21 25 27 23 17 15 19 27 36 41 46 46 48 49 53 67 81 82 75 84 92 95 100 100 100 100 100 100
92 99 100 100 100 99 97 98 98 99 97 97 99 100 99 100 97 95 93 93 93 76 50 32 19 16 16 18 22 25 29 29 25 19 23 31 39 44 45 56 65 67 72 88 87 79 82 90 94 94 97 100 100 100
42 62 87 97 96 94 96 96 97 95 97 98 99 100 100 99 97 83 74 66 57 51 39 29 21 18 17 16 16 17 20 23 25 27 27 25 23 28 39 54 71 82 83 82 84 88 95 96 93 88 90 99 91 85
30 32 44 68 89 88 95 96 95 96 95 94 99 100 100 100 97 90 75 62 60 51 43 39 34 28 24 21 19 18 19 20 21 23 25 26 26 26 26 29 40 58 74 87 92 91 88 89 92 91 90 96 97 96
26 26 28 33 53 85 85 86 92 94 97 100 100 100 100 100 100 93 88 80 68 53 44 38 32 28 25 24 23 25 28 34 38 40 40 38 36 34 31 28 25 24 27 38 62 89 100 100 96 88 88 97 100 100
28 21 22 24 28 43 73 90 83 82 91 99 99 100 96 92 85 81 75 62 50 44 39 35 34 34 36 37 39 41 43 44 46 46 45 43 40 34 28 25 25 26 32 33 31 39 66 96 100 100 100 97 98 100
60 49 31 22 22 25 31 62 91 87 77 72 72 72 67 60 55 50 46 44 43 43 44 42 40 37 36 36 38 42 45 48 50 49 43 35 30 28 29 31 36 40 46 52 55 60 65 76 94 100 100 100 100 100
41 51 61 52 32 27 25 26 48 91 92 84 73 66 63 60 58 55 52 47 41 36 34 32 32 30 31 36 42 47 50 50 48 40 35 38 41 44 48 54 61 72 84 87 85 86 92 100 100 100 100 100 100 100
47 40 38 52 71 67 50 45 35 39 67 87 83 74 65 58 53 49 45 42 38 35 33 31 29 30 31 40 48 51 51 50 44 42 52 57 56 56 59 67 76 82 93 100 100 100 100 100 100 100 100 100 100 100
66 41 38 34 47 73 72 74 72 67 60 61 65 73 74 67 59 52 48 44 41 39 36 34 32 33 38 44 49 50 49 49 46 58 69 66 62 60 63 69 75 79 80 81 82 85 88 92 94 95 96 98 100 100
98 94 70 47 44 36 35 36 35 36 40 47 57 61 61 59 55 50 46 40 37 33 30 30 32 38 46 46 44 43 45 51 68 77 76 74 72 69 71 73 74 78 79 81 83 84 86 87 88 91 93 96 98 97

GFSWCAN_500_rhum_126.txt.gz
RH
98 75 68 79 100 64 91 100 100 77 100 92 94 91 100 100 100 100 100 100 93 67 58 54 72 58 64 81 82 85 72 65 50 36 24 19 16 15 14 12 14 15 61 51 56 46 50 74 100 97 99 84 52 38
74 75 73 100 97 92 100 100 100 94 100 100 100 100 100 100 94 88 93 81 78 49 43 45 43 64 49 84 90 83 78 84 55 63 73 85 64 38 28 26 26 24 51 71 100 100 100 100 100 91 74 63 49 31
76 76 89 92 100 82 100 100 100 100 100 99 100 100 90 85 90 85 72 48 44 33 25 22 48 54 67 100 98 84 86 90 96 70 76 80 70 74 68 29 37 32 35 65 78 98 91 89 98 83 53 36 27 24
45 63 90 91 100 82 85 93 100 100 100 100 100 99 73 54 34 30 33 30 27 25 47 56 62 59 98 100 91 98 86 66 73 84 73 100 83 72 67 64 69 78 93 90 78 58 62 71 94 82 52 44 33 34
43 48 60 69 74 70 62 65 69 75 85 87 83 71 54 48 35 32 34 36 26 38 68 75 63 68 94 98 67 98 81 100 100 84 74 56 69 76 81 85 86 99 100 84 73 66 64 75 89 84 74 62 62 76
86 100 76 44 45 51 45 41 42 43 48 54 50 46 42 39 29 30 34 34 50 68 93 79 66 65 78 82 64 48 94 89 97 100 100 87 80 98 99 83 92 87 97 68 64 60 66 83 95 100 100 97 100 100
100 96 73 92 89 60 49 49 48 44 39 42 50 53 41 35 38 36 45 76 92 74 77 70 82 100 100 99 96 92 89 99 100 97 95 88 98 100 100 100 100 80 78 79 68 63 83 100 100 97 98 100 100 100
100 100 98 54 65 89 87 88 84 92 90 60 62 61 42 36 39 71 100 75 77 98 100 100 100 100 92 77 83 95 97 100 100 100 100 97 100 100 96 94 80 66 58 55 66 89 100 100 99 100 100 100 96 70
100 100 99 68 44 71 82 99 100 100 64 64 69 69 73 77 92 92 82 100 100 100 100 100 100 100 100 72 58 58 66 96 100 99 97 100 100 93 81 68 54 56 74 96 100 100 100 100 100 100 81 47 44 49
57 75 95 39 64 91 91 100 96 71 39 44 45 78 100 100 100 100 100 100 100 100 100 100 100 100 100 98 99 100 100 100 100 100 100 99 93 83 70 69 76 92 100 100 99 100 100 100 71 43 32 26 53 56
33 39 44 46 49 69 89 99 100 97 99 100 100 100 100 100 100 100 100 100 100 100 100 100 100 100 100 100 100 98 93 93 94 100 100 92 84 78 86 91 100 100 100 87 51 68 88 72 29 25 23 31 41 53
43 41 42 45 51 63 70 81 94 98 100 100 100 100 100 100 100 100 100 94 100 100 100 100 100 100 99 100 100 100 100 100 96 91 86 84 94 96 96 99 100 99 47 24 28 32 29 22 20 20 19 20 21 25
88 82 86 79 79 78 79 84 87 100 100 99 89 86 76 67 91 90 80 100 100 100 81 61 57 60 76 87 80 81 73 78 86 90 96 100 78 78 79 72 53 57 72 77 61 46 35 30 26 25 23 20 20 20
100 99 92 83 81 91 99 100 99 99 100 100 91 76 75 69 63 76 86 84 80 75 68 60 65 66 82 84 85 95 100 100 99 95 97 94 94 95 94 70 35 21 22 25 23 19 16 16 17 17 18 19 19 20
99 100 100 100 100 100 100 100 100 97 100 100 100 83 98 84 84 80 75 82 86 83 80 87 93 99 99 100 100 100 100 99 100 99 94 70 30 16 15 19 26 27 28 35 44 41 28 26 24 22 21 21 21 22
100 100 96 93 85 93 100 96 99 100 100 100 100 100 100 96 94 91 93 85 85 81 91 99 100 100 100 100 99 99 98 70 44 26 16 14 14 21 26 28 32 37 41 52 59 34 28 23 27 26 29 40 26 28
43 54 85 100 100 100 100 91 95 92 94 100 95 93 96 100 99 91 83 79 81 98 100 100 100 99 100 100 100 86 38 24 16 15 14 16 26 26 23 30 39 38 49 61 54 29 36 45 46 50 45 63 83 99
75 86 80 62 57 66 68 92 92 92 94 97 93 98 97 93 86 84 87 94 100 100 99 100 100 100 95 98 79 31 21 16 16 15 14 24 29 31 25 20 37 48 59 60 53 35 48 64 74 74 68 65 96 92
93 97 89 96 93 92 94 98 96 90 85 87 88 88 88 93 96 97 100 100 100 100 98 98 97 97 98 80 29 18 16 17 15 15 20 34 37 35 30 19 27 53 59 60 61 57 51 56 77 88 89 86 83 80
97 99 96 96 100 100 100 98 86 87 87 84 81 83 85 95 100 100 100 100 100 100 100 100 98 98 64 25 16 18 17 13 14 18 30 41 42 37 31 21 25 31 50 68 71 72 78 84 90 93 92 92 92 94
100 97 100 100 97 98 93 89 82 85 87 82 80 78 81 96 100 100 100 100 98 96 97 99 100 60 23 17 20 19 13 13 19 23 39 53 46 36 29 25 24 23 28 48 78 83 85 86 88 92 95 97 96 97
100 100 100 97 94 92 87 83 86 89 85 86 89 83 86 93 97 97 96 94 93 94 96 99 80 29 17 20 21 15 12 12 20 25 39 52 50 43 38 34 34 37 46 62 79 81 81 87 94 95 97 100 100 100
100 100 100 100 100 97 99 94 98 91 89 91 94 94 97 99 99 98 96 95 94 94 97 94 52 22 17 23 25 22 18 15 16 23 30 38 42 42 46 46 44 42 48 59 73 75 74 78 82 92 99 100 100 100
83 100 100 100 100 100 97 97 92 91 87 86 88 95 94 97 98 98 98 91 91 97 96 82 46 22 16 19 24 26 28 28 26 22 21 24 29 35 43 44 44 46 53 61 66 73 82 86 92 98 100 100 100 99
27 39 71 97 99 95 95 96 99 97 96 93 93 94 96 97 96 94 91 87 87 90 90 71 47 29 18 16 16 18 19 22 25 27 28 28 27 26 26 27 30 37 45 61 78 84 84 86 90 94 97 98 96 98
27 27 31 40 68 88 92 89 88 88 91 92 91 90 92 97 97 95 91 80 73 71 65 59 47 34 27 23 19 18 17 17 18 19 20 21 23 24 26 26 26 26 27 30 37 52 71 89 96 98 97 96 96 94
38 34 27 25 30 45 80 88 88 92 92 89 89 89 89 92 94 100 98 91 86 78 76 70 59 48 39 34 28 24 21 21 21 23 29 36 40 41 41 40 39 36 33 30 27 26 29 37 58 88 100 100 100 100
38 34 28 22 21 25 33 57 88 86 89 94 98 96 97 98 100 100 99 95 90 86 79 67 54 42 34 30 29 31 34 37 40 42 43 43 44 45 45 43 38 31 27 26 27 32 40 45 41 49 71 91 100 100
34 39 50 40 26 21 22 26 37 70 90 84 85 89 92 94 94 92 90 88 84 77 62 48 41 37 36 37 39 39 38 35 36 37 39 42 44 44 39 34 31 31 33 39 43 48 55 61 65 68 75 100 100 100
40 34 37 49 53 49 31 22 24 27 42 84 91 82 76 74 75 73 67 60 54 49 46 46 46 44 41 37 33 32 32 32 33 38 42 46 44 41 37 38 40 42 49 62 82 97 99 99 100 100 100 100 100 100
43 44 46 41 39 41 51 47 30 25 25 27 53 90 92 83 73 68 66 62 59 55 50 44 40 38 34 32 32 33 34 35 38 46 49 48 45 46 52 52 51 55 61 68 75 83 90 96 98 97 96 96 97 97
88 88 81 66 50 40 35 38 57 59 50 45 40 39 56 84 89 82 73 66 58 53 48 44 41 38 38 37 36 36 36 40 45 50 52 50 53 68 67 64 63 67 70 72 75 79 82 83 85 86 87 89 91 92
94 96 98 96 94 80 54 42 38 52 64 65 64 64 63 56 64 73 78 78 73 67 61 53 48 44 42 38 35 36 41 46 46 48 52 56 72 79 77 73 72 75 76 76 75 76 78 79 78 79 80 83 87 92